Simultaneous Nadir Overpasses (SNOs) Predictions

Prediction of SNOs between GOES-16 and METOP-B Satellite Orbit:

Table of predicted SNOs for the next 14.0 days since TLE Epoch: 3/23/2017
Index Date Time (GOES-16) GOES-16 Lat,Lon METOP-B Lat,Lon Distance(km) Time Diff (sec)
1 03/24/2017 03:36:39 -0.02, -89.47 -0.33, -90.89 161.79 80
2 03/25/2017 03:13:19 -0.02, -89.47 0.78, -85.90 407.26 80
3 03/26/2017 15:32:10 0.02, -89.51 0.23, -90.46 108.08 80
4 03/27/2017 15:14:11 0.02, -89.51 -0.89, -85.46 461.31 80
5 03/29/2017 03:33:11 -0.02, -89.48 -0.16, -90.06 66.42 80
6 03/31/2017 15:28:43 0.02, -89.52 0.05, -89.63 12.54 80
7 04/03/2017 03:27:04 -0.01, -89.49 0.02, -89.23 29.49 80
8 04/04/2017 15:45:55 0.01, -89.53 0.98, -93.79 486.03 80
9 04/05/2017 15:27:56 0.01, -89.54 -0.13, -88.80 83.84 80




NCC Satellite Simultaneous Nadir Overpasses (SNOs) Prediction Service
